"Sample Date","Sample Time","Sample Value","Units","Flow Rate","Sample Interval","Number Channels","Micron Size 0","Counts/Channel 0","Micron Size 1","Counts/Channel 1","Micron Size 2","Counts/Channel 2","Micron Size 3","Counts/Channel 3","Micron Size 4","Counts/Channel 4","Micron Size 5","Counts/Channel 5","Micron Size 6","Counts/Channel 6","Micron Size 7","Counts/Channel 7","Micron Size 8","Counts/Channel 8","Micron Size 9","Counts/Channel 9","Micron Size 10","Counts/Channel 10","Micron Size 11","Counts/Channel 11","Micron Size 12","Counts/Channel 12","Micron Size 13","Counts/Channel 13","Micron Size 14","Counts/Channel 14","Micron Size 15","Counts/Channel 15","Micron Size 16","Counts/Channel 16","Micron Size 17","Counts/Channel 17","Micron Size 18","Counts/Channel 18","Micron Size 19","Counts/Channel 19","Micron Size 20","Counts/Channel 20","Micron Size 21","Counts/Channel 21","Micron Size 22","Counts/Channel 22","Micron Size 23","Counts/Channel 23","Micron Size 24","Counts/Channel 24","Micron Size 25","Counts/Channel 25","Micron Size 26","Counts/Channel 26","Micron Size 27","Counts/Channel 27","Micron Size 28","Counts/Channel 28","Micron Size 29","Counts/Channel 29","Micron Size 30","Counts/Channel 30","Micron Size 31","Counts/Channel 31"
"04/04/08","06:00:04",15705.000,"cc",28354.295,6.00,6,0.100,9779.000,0.200,2060.000,0.300,1549.000,0.500,1785.000,1.000,532.000,5.000,0
"04/04/08","06:00:10",18399.000,"cc",28321.088,6.00,6,0.100,10910.000,0.200,2623.000,0.300,1994.000,0.500,2153.000,1.000,719.000,5.000,0
"04/04/08","06:00:16",18015.000,"cc",28318.346,6.00,6,0.100,10515.000,0.200,2655.000,0.300,1981.000,0.500,2102.000,1.000,762.000,5.000,0
"04/04/08","06:00:22",16230.000,"cc",28297.037,6.00,6,0.100,10086.000,0.200,2208.000,0.300,1649.000,0.500,1706.000,1.000,581.000,5.000,0
"04/04/08","06:00:28",17229.000,"cc",28304.488,6.00,6,0.100,10831.000,0.200,2308.000,0.300,1668.000,0.500,1828.000,1.000,594.000,5.000,0
"04/04/08","06:00:34",19240.000,"cc",28277.410,6.00,6,0.100,11939.000,0.200,2666.000,0.300,1936.000,0.500,2025.000,1.000,674.000,5.000,0
"04/04/08","06:00:40",18230.000,"cc",28259.910,6.00,6,0.100,11292.000,0.200,2523.000,0.300,1806.000,0.500,2007.000,1.000,602.000,5.000,0
"04/04/08","06:00:46",16365.000,"cc",28338.783,6.00,6,0.100,9955.000,0.200,2314.000,0.300,1672.000,0.500,1837.000,1.000,587.000,5.000,0
"04/04/08","06:00:52",16206.000,"cc",28282.664,6.00,6,0.100,10113.000,0.200,2213.000,0.300,1594.000,0.500,1730.000,1.000,556.000,5.000,0
"04/04/08","06:00:58",17408.000,"cc",28339.244,6.00,6,0.100,10667.000,0.200,2430.000,0.300,1721.000,0.500,1943.000,1.000,647.000,5.000,0
"04/04/08","06:01:04",16150.000,"cc",28337.441,6.00,6,0.100,9861.000,0.200,2200.000,0.300,1645.000,0.500,1824.000,1.000,620.000,5.000,0
"04/04/08","06:01:10",16073.000,"cc",28367.740,6.00,6,0.100,9920.000,0.200,2268.000,0.300,1560.000,0.500,1753.000,1.000,572.000,5.000,0
"04/04/08","06:01:16",15974.000,"cc",28323.641,6.00,6,0.100,9936.000,0.200,2137.000,0.300,1617.000,0.500,1711.000,1.000,573.000,5.000,0
"04/04/08","06:01:22",15960.000,"cc",28284.008,6.00,6,0.100,9872.000,0.200,2159.000,0.300,1609.000,0.500,1733.000,1.000,587.000,5.000,0
"04/04/08","06:01:28",17427.000,"cc",28282.418,6.00,6,0.100,10333.000,0.200,2508.000,0.300,1828.000,0.500,2018.000,1.000,740.000,5.000,0
"04/04/08","06:01:34",16287.000,"cc",28318.598,6.00,6,0.100,10047.000,0.200,2233.000,0.300,1642.000,0.500,1776.000,1.000,589.000,5.000,0
"04/04/08","06:01:40",16717.000,"cc",28297.322,6.00,6,0.100,10310.000,0.200,2416.000,0.300,1693.000,0.500,1739.000,1.000,559.000,5.000,0
"04/04/08","06:01:46",16293.000,"cc",28322.469,6.00,6,0.100,10025.000,0.200,2309.000,0.300,1664.000,0.500,1698.000,1.000,597.000,5.000,0
"04/04/08","06:01:52",19375.000,"cc",28300.428,6.00,6,0.100,11502.000,0.200,2896.000,0.300,2072.000,0.500,2188.000,1.000,717.000,5.000,0
"04/04/08","06:01:58",20448.000,"cc",28339.510,6.00,6,0.100,12219.000,0.200,3007.000,0.300,2189.000,0.500,2245.000,1.000,788.000,5.000,0
"04/04/08","06:02:04",16380.000,"cc",28354.248,6.00,6,0.100,10021.000,0.200,2325.000,0.300,1617.000,0.500,1814.000,1.000,603.000,5.000,0
"04/04/08","06:02:10",16564.000,"cc",28312.400,6.00,6,0.100,10650.000,0.200,2159.000,0.300,1541.000,0.500,1634.000,1.000,580.000,5.000,0
"04/04/08","06:02:16",17558.000,"cc",28272.680,6.00,6,0.100,11724.000,0.200,2232.000,0.300,1519.000,0.500,1565.000,1.000,518.000,5.000,0
"04/04/08","06:02:22",16364.000,"cc",28289.619,6.00,6,0.100,10324.000,0.200,2189.000,0.300,1606.000,0.500,1711.000,1.000,534.000,5.000,0
"04/04/08","06:02:28",19135.000,"cc",28352.871,6.00,6,0.100,11729.000,0.200,2686.000,0.300,1937.000,0.500,2084.000,1.000,699.000,5.000,0
"04/04/08","06:02:34",16848.000,"cc",28348.492,6.00,6,0.100,10202.000,0.200,2373.000,0.300,1753.000,0.500,1851.000,1.000,669.000,5.000,0
"04/04/08","06:02:40",15924.000,"cc",28230.186,6.00,6,0.100,9783.000,0.200,2229.000,0.300,1532.000,0.500,1812.000,1.000,568.000,5.000,0
"04/04/08","06:02:46",17423.000,"cc",28323.992,6.00,6,0.100,11342.000,0.200,2243.000,0.300,1567.000,0.500,1719.000,1.000,552.000,5.000,0
"04/04/08","06:02:52",18958.000,"cc",28313.621,6.00,6,0.100,10993.000,0.200,2874.000,0.300,2085.000,0.500,2214.000,1.000,792.000,5.000,0
"04/04/08","06:02:58",15976.000,"cc",28304.861,6.00,6,0.100,9726.000,0.200,2207.000,0.300,1664.000,0.500,1819.000,1.000,560.000,5.000,0
"04/04/08","06:03:04",15661.000,"cc",28374.957,6.00,6,0.100,9713.000,0.200,2121.000,0.300,1563.000,0.500,1685.000,1.000,579.000,5.000,0
"04/04/08","06:03:10",15598.000,"cc",28329.283,6.00,6,0.100,9666.000,0.200,2100.000,0.300,1581.000,0.500,1684.000,1.000,567.000,5.000,0
"04/04/08","06:03:16",15256.000,"cc",28331.826,6.00,6,0.100,9430.000,0.200,2100.000,0.300,1487.000,0.500,1695.000,1.000,544.000,5.000,0
"04/04/08","06:03:22",15684.000,"cc",28308.094,6.00,6,0.100,9856.000,0.200,2117.000,0.300,1490.000,0.500,1659.000,1.000,562.000,5.000,0
"04/04/08","06:03:28",15670.000,"cc",28333.272,6.00,6,0.100,9857.000,0.200,2109.000,0.300,1527.000,0.500,1644.000,1.000,533.000,5.000,0
"04/04/08","06:03:34",16533.000,"cc",28341.645,6.00,6,0.100,10088.000,0.200,2214.000,0.300,1646.000,0.500,1904.000,1.000,681.000,5.000,0
"04/04/08","06:03:40",17308.000,"cc",28303.082,6.00,6,0.100,10643.000,0.200,2371.000,0.300,1774.000,0.500,1894.000,1.000,626.000,5.000,0
"04/04/08","06:03:46",19037.000,"cc",28321.221,6.00,6,0.100,12114.000,0.200,2640.000,0.300,1808.000,0.500,1826.000,1.000,649.000,5.000,0
"04/04/08","06:03:52",15684.000,"cc",28311.445,6.00,6,0.100,9630.000,0.200,2164.000,0.300,1571.000,0.500,1740.000,1.000,579.000,5.000,0
"04/04/08","06:03:58",15627.000,"cc",28336.295,6.00,6,0.100,9710.000,0.200,2074.000,0.300,1565.000,0.500,1705.000,1.000,573.000,5.000,0
"04/04/08","06:04:04",15767.000,"cc",28337.764,6.00,6,0.100,9873.000,0.200,2141.000,0.300,1503.000,0.500,1721.000,1.000,529.000,5.000,0
"04/04/08","06:04:10",16054.000,"cc",28304.746,6.00,6,0.100,9959.000,0.200,2188.000,0.300,1575.000,0.500,1761.000,1.000,571.000,5.000,0
"04/04/08","06:04:16",18465.000,"cc",28213.795,6.00,6,0.100,11203.000,0.200,2622.000,0.300,1885.000,0.500,2105.000,1.000,650.000,5.000,0
"04/04/08","06:04:22",17346.000,"cc",28305.936,6.00,6,0.100,10581.000,0.200,2495.000,0.300,1753.000,0.500,1882.000,1.000,635.000,5.000,0
"04/04/08","06:04:28",17017.000,"cc",28335.107,6.00,6,0.100,10638.000,0.200,2378.000,0.300,1588.000,0.500,1815.000,1.000,598.000,5.000,0
"04/04/08","06:04:34",16890.000,"cc",28393.115,6.00,6,0.100,10585.000,0.200,2356.000,0.300,1606.000,0.500,1760.000,1.000,583.000,5.000,0
"04/04/08","06:04:40",18160.000,"cc",28322.057,6.00,6,0.100,11733.000,0.200,2434.000,0.300,1673.000,0.500,1751.000,1.000,569.000,5.000,0
"04/04/08","06:04:46",17750.000,"cc",28307.363,6.00,6,0.100,10863.000,0.200,2479.000,0.300,1814.000,0.500,1927.000,1.000,667.000,5.000,0
"04/04/08","06:04:52",16771.000,"cc",28227.525,6.00,6,0.100,10328.000,0.200,2297.000,0.300,1691.000,0.500,1880.000,1.000,575.000,5.000,0
"04/04/08","06:04:58",18125.000,"cc",28394.244,6.00,6,0.100,10848.000,0.200,2611.000,0.300,1910.000,0.500,2072.000,1.000,684.000,5.000,0
"04/04/08","06:05:04",15780.000,"cc",28369.869,6.00,6,0.100,9759.000,0.200,2149.000,0.300,1580.000,0.500,1710.000,1.000,582.000,5.000,0
"04/04/08","06:05:10",15947.000,"cc",28423.385,6.00,6,0.100,9966.000,0.200,2083.000,0.300,1557.000,0.500,1768.000,1.000,573.000,5.000,0
"04/04/08","06:05:16",15760.000,"cc",28357.559,6.00,6,0.100,9749.000,0.200,2159.000,0.300,1524.000,0.500,1727.000,1.000,601.000,5.000,0
"04/04/08","06:05:22",15525.000,"cc",28339.184,6.00,6,0.100,9787.000,0.200,1992.000,0.300,1483.000,0.500,1684.000,1.000,579.000,5.000,0
"04/04/08","06:05:28",15493.000,"cc",28316.580,6.00,6,0.100,9666.000,0.200,2016.000,0.300,1519.000,0.500,1709.000,1.000,583.000,5.000,0
"04/04/08","06:05:34",15516.000,"cc",28366.586,6.00,6,0.100,9765.000,0.200,2119.000,0.300,1488.000,0.500,1631.000,1.000,513.000,5.000,0
"04/04/08","06:05:40",15424.000,"cc",28342.992,6.00,6,0.100,9768.000,0.200,2021.000,0.300,1468.000,0.500,1626.000,1.000,541.000,5.000,0
"04/04/08","06:05:46",15677.000,"cc",28270.897,6.00,6,0.100,9818.000,0.200,2077.000,0.300,1574.000,0.500,1624.000,1.000,584.000,5.000,0
"04/04/08","06:05:52",15585.000,"cc",28368.018,6.00,6,0.100,9834.000,0.200,1979.000,0.300,1562.000,0.500,1700.000,1.000,510.000,5.000,0
"04/04/08","06:05:58",15509.000,"cc",28288.053,6.00,6,0.100,9813.000,0.200,2118.000,0.300,1514.000,0.500,1552.000,1.000,512.000,5.000,0
"04/04/08","06:06:04",15432.000,"cc",28355.582,6.00,6,0.100,9663.000,0.200,2055.000,0.300,1502.000,0.500,1694.000,1.000,518.000,5.000,0
"04/04/08","06:06:10",15834.000,"cc",28393.902,6.00,6,0.100,9987.000,0.200,2054.000,0.300,1537.000,0.500,1677.000,1.000,579.000,5.000,0
"04/04/08","06:06:16",15763.000,"cc",28350.482,6.00,6,0.100,9908.000,0.200,2112.000,0.300,1485.000,0.500,1685.000,1.000,573.000,5.000,0
"04/04/08","06:06:22",15476.000,"cc",28269.346,6.00,6,0.100,9812.000,0.200,1988.000,0.300,1497.000,0.500,1645.000,1.000,534.000,5.000,0
"04/04/08","06:06:28",15604.000,"cc",28391.299,6.00,6,0.100,9821.000,0.200,2086.000,0.300,1455.000,0.500,1697.000,1.000,545.000,5.000,0
"04/04/08","06:06:34",15469.000,"cc",28210.768,6.00,6,0.100,9817.000,0.200,2045.000,0.300,1427.000,0.500,1643.000,1.000,537.000,5.000,0
"04/04/08","06:06:40",16233.000,"cc",28269.637,6.00,6,0.100,9988.000,0.200,2227.000,0.300,1672.000,0.500,1775.000,1.000,571.000,5.000,0
"04/04/08","06:06:46",15541.000,"cc",28416.713,6.00,6,0.100,9773.000,0.200,2047.000,0.300,1496.000,0.500,1686.000,1.000,539.000,5.000,0
"04/04/08","06:06:52",15654.000,"cc",28432.094,6.00,6,0.100,9722.000,0.200,2137.000,0.300,1556.000,0.500,1675.000,1.000,564.000,5.000,0
"04/04/08","06:06:58",15323.000,"cc",28327.723,6.00,6,0.100,9612.000,0.200,2069.000,0.300,1448.000,0.500,1613.000,1.000,581.000,5.000,0
"04/04/08","06:07:04",15162.000,"cc",28279.398,6.00,6,0.100,9584.000,0.200,2000.000,0.300,1421.000,0.500,1617.000,1.000,540.000,5.000,0
"04/04/08","06:07:10",15652.000,"cc",28279.902,6.00,6,0.100,9838.000,0.200,2056.000,0.300,1520.000,0.500,1660.000,1.000,578.000,5.000,0
"04/04/08","06:07:16",15619.000,"cc",28381.315,6.00,6,0.100,9806.000,0.200,2080.000,0.300,1462.000,0.500,1717.000,1.000,554.000,5.000,0
"04/04/08","06:07:22",15995.000,"cc",28254.022,6.00,6,0.100,9880.000,0.200,2184.000,0.300,1574.000,0.500,1740.000,1.000,617.000,5.000,0
"04/04/08","06:07:28",15862.000,"cc",28322.684,6.00,6,0.100,9812.000,0.200,2144.000,0.300,1563.000,0.500,1789.000,1.000,554.000,5.000,0
"04/04/08","06:07:34",15517.000,"cc",28350.322,6.00,6,0.100,9697.000,0.200,2020.000,0.300,1567.000,0.500,1677.000,1.000,556.000,5.000,0
"04/04/08","06:07:40",15545.000,"cc",28356.215,6.00,6,0.100,9733.000,0.200,2019.000,0.300,1515.000,0.500,1732.000,1.000,546.000,5.000,0
"04/04/08","06:07:46",15475.000,"cc",28285.760,6.00,6,0.100,9618.000,0.200,2099.000,0.300,1524.000,0.500,1695.000,1.000,539.000,5.000,0
"04/04/08","06:07:52",15773.000,"cc",28190.652,6.00,6,0.100,9750.000,0.200,2157.000,0.300,1595.000,0.500,1681.000,1.000,590.000,5.000,0
"04/04/08","06:07:58",15562.000,"cc",28313.258,6.00,6,0.100,9742.000,0.200,2018.000,0.300,1588.000,0.500,1693.000,1.000,521.000,5.000,0
"04/04/08","06:08:04",15376.000,"cc",28423.680,6.00,6,0.100,9738.000,0.200,2022.000,0.300,1446.000,0.500,1608.000,1.000,562.000,5.000,0
"04/04/08","06:08:10",15843.000,"cc",28297.988,6.00,6,0.100,9856.000,0.200,2150.000,0.300,1571.000,0.500,1698.000,1.000,568.000,5.000,0
"04/04/08","06:08:16",15497.000,"cc",28332.408,6.00,6,0.100,9698.000,0.200,2082.000,0.300,1478.000,0.500,1664.000,1.000,575.000,5.000,0
"04/04/08","06:08:22",15423.000,"cc",28298.238,6.00,6,0.100,9646.000,0.200,2037.000,0.300,1522.000,0.500,1655.000,1.000,563.000,5.000,0
"04/04/08","06:08:28",15637.000,"cc",28274.023,6.00,6,0.100,9853.000,0.200,2050.000,0.300,1541.000,0.500,1643.000,1.000,550.000,5.000,0
"04/04/08","06:08:34",15759.000,"cc",28233.768,6.00,6,0.100,9883.000,0.200,2117.000,0.300,1543.000,0.500,1674.000,1.000,542.000,5.000,0
"04/04/08","06:08:40",15803.000,"cc",28179.066,6.00,6,0.100,9884.000,0.200,2108.000,0.300,1528.000,0.500,1696.000,1.000,587.000,5.000,0
"04/04/08","06:08:46",15634.000,"cc",28229.908,6.00,6,0.100,9809.000,0.200,2061.000,0.300,1519.000,0.500,1695.000,1.000,550.000,5.000,0
"04/04/08","06:08:52",15823.000,"cc",28253.148,6.00,6,0.100,10069.000,0.200,2073.000,0.300,1485.000,0.500,1690.000,1.000,506.000,5.000,0
"04/04/08","06:08:58",15695.000,"cc",28355.365,6.00,6,0.100,9900.000,0.200,2152.000,0.300,1487.000,0.500,1620.000,1.000,536.000,5.000,0
"04/04/08","06:09:04",15587.000,"cc",28316.951,6.00,6,0.100,9926.000,0.200,2051.000,0.300,1465.000,0.500,1620.000,1.000,525.000,5.000,0
"04/04/08","06:09:10",15333.000,"cc",28292.115,6.00,6,0.100,9781.000,0.200,1973.000,0.300,1458.000,0.500,1606.000,1.000,515.000,5.000,0
"04/04/08","06:09:16",15709.000,"cc",28279.555,6.00,6,0.100,10080.000,0.200,2007.000,0.300,1484.000,0.500,1558.000,1.000,580.000,5.000,0
"04/04/08","06:09:22",15646.000,"cc",28234.223,6.00,6,0.100,9964.000,0.200,2054.000,0.300,1511.000,0.500,1600.000,1.000,517.000,5.000,0
"04/04/08","06:09:28",15851.000,"cc",28334.324,6.00,6,0.100,9989.000,0.200,2165.000,0.300,1468.000,0.500,1671.000,1.000,558.000,5.000,0
"04/04/08","06:09:34",15488.000,"cc",28324.293,6.00,6,0.100,9869.000,0.200,2075.000,0.300,1480.000,0.500,1546.000,1.000,518.000,5.000,0
"04/04/08","06:09:40",15453.000,"cc",28388.613,6.00,6,0.100,9770.000,0.200,2130.000,0.300,1463.000,0.500,1557.000,1.000,533.000,5.000,0
"04/04/08","06:09:46",15551.000,"cc",28267.283,6.00,6,0.100,9929.000,0.200,2046.000,0.300,1454.000,0.500,1600.000,1.000,522.000,5.000,0
"04/04/08","06:09:52",15385.000,"cc",28260.703,6.00,6,0.100,9863.000,0.200,2019.000,0.300,1466.000,0.500,1539.000,1.000,498.000,5.000,0
"04/04/08","06:09:58",15509.000,"cc",28309.166,6.00,6,0.100,10006.000,0.200,2071.000,0.300,1385.000,0.500,1508.000,1.000,539.000,5.000,0
"04/04/08","06:10:04",15458.000,"cc",28380.016,6.00,6,0.100,10020.000,0.200,1969.000,0.300,1444.000,0.500,1539.000,1.000,486.000,5.000,0
"04/04/08","06:10:10",15731.000,"cc",28302.078,6.00,6,0.100,10148.000,0.200,2073.000,0.300,1459.000,0.500,1526.000,1.000,525.000,5.000,0
"04/04/08","06:10:16",15403.000,"cc",28274.086,6.00,6,0.100,9851.000,0.200,2011.000,0.300,1445.000,0.500,1576.000,1.000,520.000,5.000,0
"04/04/08","06:10:22",15536.000,"cc",28292.877,6.00,6,0.100,10007.000,0.200,2062.000,0.300,1384.000,0.500,1589.000,1.000,494.000,5.000,0
"04/04/08","06:10:28",15588.000,"cc",28340.133,6.00,6,0.100,10103.000,0.200,1983.000,0.300,1464.000,0.500,1511.000,1.000,527.000,5.000,0
"04/04/08","06:10:34",15631.000,"cc",28355.824,6.00,6,0.100,9892.000,0.200,2155.000,0.300,1466.000,0.500,1594.000,1.000,524.000,5.000,0
"04/04/08","06:10:40",15561.000,"cc",28286.279,6.00,6,0.100,9957.000,0.200,2054.000,0.300,1456.000,0.500,1563.000,1.000,531.000,5.000,0
"04/04/08","06:10:46",15530.000,"cc",28299.613,6.00,6,0.100,9934.000,0.200,2070.000,0.300,1501.000,0.500,1548.000,1.000,477.000,5.000,0
"04/04/08","06:10:52",15710.000,"cc",28248.211,6.00,6,0.100,10211.000,0.200,1990.000,0.300,1433.000,0.500,1565.000,1.000,511.000,5.000,0
"04/04/08","06:10:58",15417.000,"cc",28329.867,6.00,6,0.100,9861.000,0.200,2031.000,0.300,1470.000,0.500,1552.000,1.000,503.000,5.000,0
"04/04/08","06:11:04",15741.000,"cc",28414.361,6.00,6,0.100,9995.000,0.200,2132.000,0.300,1443.000,0.500,1646.000,1.000,525.000,5.000,0
"04/04/08","06:11:10",15836.000,"cc",28324.315,6.00,6,0.100,10235.000,0.200,2057.000,0.300,1414.000,0.500,1602.000,1.000,528.000,5.000,0
"04/04/08","06:11:16",15565.000,"cc",28340.123,6.00,6,0.100,10045.000,0.200,2085.000,0.300,1468.000,0.500,1471.000,1.000,496.000,5.000,0
"04/04/08","06:11:22",15602.000,"cc",28214.166,6.00,6,0.100,10039.000,0.200,1988.000,0.300,1430.000,0.500,1610.000,1.000,535.000,5.000,0
"04/04/08","06:11:28",16005.000,"cc",28383.514,6.00,6,0.100,10293.000,0.200,2013.000,0.300,1526.000,0.500,1620.000,1.000,553.000,5.000,0
"04/04/08","06:11:34",15601.000,"cc",28325.631,6.00,6,0.100,9993.000,0.200,2012.000,0.300,1499.000,0.500,1561.000,1.000,536.000,5.000,0
"04/04/08","06:11:40",16085.000,"cc",28317.057,6.00,6,0.100,10352.000,0.200,2104.000,0.300,1488.000,0.500,1627.000,1.000,514.000,5.000,0
"04/04/08","06:11:46",15806.000,"cc",28389.695,6.00,6,0.100,10203.000,0.200,2010.000,0.300,1435.000,0.500,1599.000,1.000,559.000,5.000,0
"04/04/08","06:11:52",15523.000,"cc",28352.523,6.00,6,0.100,10018.000,0.200,2019.000,0.300,1458.000,0.500,1533.000,1.000,495.000,5.000,0
"04/04/08","06:11:58",15796.000,"cc",28263.061,6.00,6,0.100,10192.000,0.200,2070.000,0.300,1443.000,0.500,1544.000,1.000,547.000,5.000,0
"04/04/08","06:12:04",16033.000,"cc",28199.779,6.00,6,0.100,10366.000,0.200,2079.000,0.300,1418.000,0.500,1622.000,1.000,548.000,5.000,0
"04/04/08","06:12:10",15740.000,"cc",28357.594,6.00,6,0.100,10035.000,0.200,2056.000,0.300,1539.000,0.500,1609.000,1.000,501.000,5.000,0
"04/04/08","06:12:16",15722.000,"cc",28348.660,6.00,6,0.100,10107.000,0.200,2103.000,0.300,1449.000,0.500,1545.000,1.000,518.000,5.000,0
"04/04/08","06:12:22",15801.000,"cc",28360.561,6.00,6,0.100,10058.000,0.200,2075.000,0.300,1538.000,0.500,1616.000,1.000,514.000,5.000,0
"04/04/08","06:12:28",15884.000,"cc",28244.502,6.00,6,0.100,10351.000,0.200,1993.000,0.300,1465.000,0.500,1567.000,1.000,508.000,5.000,0
"04/04/08","06:12:34",16078.000,"cc",28322.420,6.00,6,0.100,10269.000,0.200,2039.000,0.300,1550.000,0.500,1651.000,1.000,569.000,5.000,0
"04/04/08","06:12:40",15881.000,"cc",28324.555,6.00,6,0.100,10212.000,0.200,2050.000,0.300,1498.000,0.500,1596.000,1.000,525.000,5.000,0
"04/04/08","06:12:46",15913.000,"cc",28373.363,6.00,6,0.100,10178.000,0.200,2078.000,0.300,1513.000,0.500,1614.000,1.000,530.000,5.000,0
"04/04/08","06:12:52",16045.000,"cc",28351.111,6.00,6,0.100,10230.000,0.200,2109.000,0.300,1520.000,0.500,1604.000,1.000,582.000,5.000,0
"04/04/08","06:12:58",15800.000,"cc",28327.984,6.00,6,0.100,10197.000,0.200,2044.000,0.300,1536.000,0.500,1517.000,1.000,506.000,5.000,0
"04/04/08","06:13:04",15771.000,"cc",28375.371,6.00,6,0.100,10097.000,0.200,2072.000,0.300,1455.000,0.500,1568.000,1.000,579.000,5.000,0
"04/04/08","06:13:10",15816.000,"cc",28254.447,6.00,6,0.100,10204.000,0.200,2048.000,0.300,1468.000,0.500,1585.000,1.000,511.000,5.000,0
"04/04/08","06:13:16",15815.000,"cc",28284.834,6.00,6,0.100,10190.000,0.200,2042.000,0.300,1484.000,0.500,1583.000,1.000,516.000,5.000,0
"04/04/08","06:13:22",15821.000,"cc",28208.525,6.00,6,0.100,10198.000,0.200,2039.000,0.300,1511.000,0.500,1541.000,1.000,532.000,5.000,0
"04/04/08","06:13:28",16140.000,"cc",28391.119,6.00,6,0.100,10309.000,0.200,2102.000,0.300,1508.000,0.500,1643.000,1.000,578.000,5.000,0
"04/04/08","06:13:34",15744.000,"cc",28255.615,6.00,6,0.100,10183.000,0.200,2056.000,0.300,1476.000,0.500,1504.000,1.000,525.000,5.000,0
"04/04/08","06:13:40",16075.000,"cc",28454.898,6.00,6,0.100,10426.000,0.200,2052.000,0.300,1527.000,0.500,1564.000,1.000,506.000,5.000,0
"04/04/08","06:13:46",15874.000,"cc",28314.066,6.00,6,0.100,10203.000,0.200,2034.000,0.300,1521.000,0.500,1607.000,1.000,509.000,5.000,0
"04/04/08","06:13:52",15970.000,"cc",28146.147,6.00,6,0.100,10248.000,0.200,2117.000,0.300,1476.000,0.500,1593.000,1.000,536.000,5.000,0
"04/04/08","06:13:58",15925.000,"cc",28413.387,6.00,6,0.100,10238.000,0.200,2046.000,0.300,1522.000,0.500,1599.000,1.000,520.000,5.000,0
"04/04/08","06:14:04",16034.000,"cc",28314.508,6.00,6,0.100,10388.000,0.200,2052.000,0.300,1473.000,0.500,1599.000,1.000,522.000,5.000,0
"04/04/08","06:14:10",16053.000,"cc",28311.383,6.00,6,0.100,10235.000,0.200,2160.000,0.300,1578.000,0.500,1556.000,1.000,524.000,5.000,0
"04/04/08","06:14:16",16274.000,"cc",28305.279,6.00,6,0.100,10400.000,0.200,2094.000,0.300,1531.000,0.500,1677.000,1.000,572.000,5.000,0
"04/04/08","06:14:22",16045.000,"cc",28240.293,6.00,6,0.100,10211.000,0.200,2120.000,0.300,1524.000,0.500,1637.000,1.000,553.000,5.000,0
"04/04/08","06:14:28",16117.000,"cc",28346.561,6.00,6,0.100,10358.000,0.200,2074.000,0.300,1527.000,0.500,1619.000,1.000,539.000,5.000,0
"04/04/08","06:14:34",16139.000,"cc",28337.408,6.00,6,0.100,10366.000,0.200,2088.000,0.300,1532.000,0.500,1648.000,1.000,505.000,5.000,0
"04/04/08","06:14:40",16259.000,"cc",28238.053,6.00,6,0.100,10481.000,0.200,2102.000,0.300,1490.000,0.500,1635.000,1.000,551.000,5.000,0
"04/04/08","06:14:46",16012.000,"cc",28311.598,6.00,6,0.100,10306.000,0.200,2037.000,0.300,1549.000,0.500,1632.000,1.000,488.000,5.000,0
"04/04/08","06:14:52",15918.000,"cc",28386.764,6.00,6,0.100,10260.000,0.200,1988.000,0.300,1552.000,0.500,1623.000,1.000,495.000,5.000,0
"04/04/08","06:14:58",15991.000,"cc",28331.865,6.00,6,0.100,10367.000,0.200,1979.000,0.300,1565.000,0.500,1568.000,1.000,512.000,5.000,0
"04/04/08","06:15:04",15878.000,"cc",28340.248,6.00,6,0.100,10275.000,0.200,2062.000,0.300,1463.000,0.500,1572.000,1.000,506.000,5.000,0
"04/04/08","06:15:10",16093.000,"cc",28321.391,6.00,6,0.100,10363.000,0.200,2071.000,0.300,1481.000,0.500,1618.000,1.000,560.000,5.000,0
"04/04/08","06:15:16",15776.000,"cc",28313.900,6.00,6,0.100,10249.000,0.200,2047.000,0.300,1420.000,0.500,1558.000,1.000,502.000,5.000,0
"04/04/08","06:15:22",15858.000,"cc",28260.719,6.00,6,0.100,10274.000,0.200,2132.000,0.300,1404.000,0.500,1538.000,1.000,510.000,5.000,0
"04/04/08","06:15:28",16073.000,"cc",28325.750,6.00,6,0.100,10437.000,0.200,2098.000,0.300,1427.000,0.500,1594.000,1.000,517.000,5.000,0
"04/04/08","06:15:34",15616.000,"cc",28374.422,6.00,6,0.100,10171.000,0.200,1986.000,0.300,1375.000,0.500,1566.000,1.000,518.000,5.000,0
"04/04/08","06:15:40",15892.000,"cc",28324.199,6.00,6,0.100,10292.000,0.200,2020.000,0.300,1463.000,0.500,1598.000,1.000,519.000,5.000,0
"04/04/08","06:15:46",15939.000,"cc",28311.344,6.00,6,0.100,10242.000,0.200,2081.000,0.300,1514.000,0.500,1548.000,1.000,554.000,5.000,0
"04/04/08","06:15:52",15887.000,"cc",28293.754,6.00,6,0.100,10140.000,0.200,2071.000,0.300,1522.000,0.500,1614.000,1.000,540.000,5.000,0
"04/04/08","06:15:58",16087.000,"cc",28351.787,6.00,6,0.100,10340.000,0.200,2118.000,0.300,1526.000,0.500,1600.000,1.000,503.000,5.000,0
"04/04/08","06:16:04",15967.000,"cc",28312.061,6.00,6,0.100,10215.000,0.200,2088.000,0.300,1520.000,0.500,1614.000,1.000,530.000,5.000,0
"04/04/08","06:16:10",15689.000,"cc",28306.723,6.00,6,0.100,10173.000,0.200,2065.000,0.300,1449.000,0.500,1515.000,1.000,487.000,5.000,0
"04/04/08","06:16:16",16052.000,"cc",28389.633,6.00,6,0.100,10220.000,0.200,2108.000,0.300,1553.000,0.500,1637.000,1.000,534.000,5.000,0
"04/04/08","06:16:22",15913.000,"cc",28257.440,6.00,6,0.100,10264.000,0.200,2086.000,0.300,1496.000,0.500,1571.000,1.000,496.000,5.000,0
"04/04/08","06:16:28",15963.000,"cc",28339.473,6.00,6,0.100,10187.000,0.200,2160.000,0.300,1532.000,0.500,1572.000,1.000,512.000,5.000,0